Location: Ferchesar
(52.6477°N, 12.4298°E)
Time: 22:36:47
(UTC+01:00)

TIGRISAT - Pass Details

Date: 26 October 2021
Orbit: 603 x 689 km, 97.7° (Epoch: 30 November)

Event Time Altitude Azimuth Distance (km) Brightness Sun altitude
Rises 20:43:44 0° 12° (NNE) 2,978 ? -26.6°
Reaches altitude 10° 20:45:59 10° 10° (N) 2,049 ? -26.9°
Enters shadow 20:46:37 14° 9° (N) 1,795 ? -27.0°
Exits shadow 20:55:11 - 205° (SSW) 2,187 ? -28.2°
Sets 20:56:51 0° 204° (SSW) 2,875 ? -28.5°
